Tracking 19212 objects as of 16-Jul-2018
HD Live streaming from Space Station
objects crossing your sky now

GALAXY 9

Track GALAXY 9 now!
GALAXY 9 is classified as:


NORAD ID: 23877
Int'l Code: 1996-033A
Perigee: 35,971.1 km
Apogee: 36,029.1 km
Inclination: 7.5 °
Period: 1,446.7 minutes
Semi major axis: 42371 km
RCS: 8.797 m2 (large)
Launch date: May 24, 1996
Source: United States (US)
Launch site: AIR FORCE EASTERN TEST RANGE (AFETR)

Voice and vision communication; 24 C-band; North America, Caribbean.
aabbcc
Your satellite tracking list
Your tracking list is empty




NASA's NSSDC Master Catalog

Two Line Element Set (TLE):
1 23877U 96033A   18196.26399189 +.00000047 +00000-0 +00000-0 0  9991
2 23877 007.4921 050.5767 0006841 096.1128 273.0554 00.99540268017555
Source of the keplerian elements: AFSPC